This is the latest recevied weather packets stored in our database for station/object K7SKM. If no packets are shown the sender has not sent any weather packets the latest 10 day(s).
| Time | Temp. | Humidity | Pressure | Rain* | Wind** | Luminosity | Snow |
|---|---|---|---|---|---|---|---|
| 1777498627 | 18.89° C | 49% | 1027.6 hPa | 0 mm | - | 408 W/m² | - |
| 1777498323 | 18.89° C | 49% | 1027.5 hPa | 0 mm | - | 410 W/m² | - |
| 1777498021 | 18.33° C | 51% | 1027.5 hPa | 0 mm | - | 405 W/m² | - |
| 1777497717 | 18.33° C | 50% | 1027.5 hPa | 0 mm | - | 407 W/m² | - |
| 1777497414 | 18.89° C | 49% | 1027.6 hPa | 0 mm | - | 410 W/m² | - |
| 1777497110 | 18.33° C | 49% | 1027.8 hPa | 0 mm | - | 412 W/m² | - |
| 1777496807 | 18.89° C | 49% | 1027.8 hPa | 0 mm | - | 413 W/m² | - |
| 1777496503 | 18.33° C | 51% | 1027.8 hPa | 0 mm | - | 408 W/m² | - |
| 1777496199 | 17.78° C | 52% | 1027.7 hPa | 0 mm | - | 407 W/m² | - |
| 1777495896 | 17.78° C | 51% | 1027.8 hPa | 0 mm | - | 406 W/m² | - |
| 1777495592 | 18.89° C | 50% | 1027.8 hPa | 0 mm | - | 409 W/m² | - |
| 1777495288 | 17.78° C | 51% | 1028.1 hPa | 0 mm | - | 404 W/m² | - |
| 1777494986 | 17.78° C | 52% | 1027.9 hPa | 0 mm | - | 403 W/m² | - |
| 1777494682 | 17.78° C | 52% | 1028 hPa | 0 mm | - | 404 W/m² | - |
| 1777494380 | 17.78° C | 53% | 1028 hPa | 0 mm | - | 400 W/m² | - |
| 1777494076 | 17.22° C | 53% | 1028 hPa | 0 mm | - | 403 W/m² | - |
| 1777493774 | 17.78° C | 52% | 1028.2 hPa | 0 mm | - | 405 W/m² | - |
| 1777493472 | 17.22° C | 53% | 1028.1 hPa | 0 mm | - | 403 W/m² | - |
| 1777493168 | 17.78° C | 53% | 1028.2 hPa | 0 mm | - | 404 W/m² | - |
| 1777492865 | 17.78° C | 52% | 1028.2 hPa | 0 mm | - | 409 W/m² | - |
| 1777492561 | 18.33° C | 47% | 1028.3 hPa | 0 mm | - | 407 W/m² | - |
| 1777492256 | 18.89° C | 47% | 1028.2 hPa | 0 mm | - | 404 W/m² | - |
| 1777491954 | 17.78° C | 49% | 1028.3 hPa | 0 mm | - | 403 W/m² | - |
| 1777491650 | 18.33° C | 48% | 1028.4 hPa | 0 mm | - | 404 W/m² | - |
| 1777491348 | 17.78° C | 50% | 1028.5 hPa | 0 mm | - | 401 W/m² | - |
* Rain latest hour (hover to see other rain measurements)
** Current wind speed in m/s (hover to see current wind gust speed)